Dewpoint
66 66 66 66 65 65 66 66 66 66 66 66 65 65 65 66 66 67 67 68 69 69 68 67 67 66 66 65 65 63 64 64 63 62 63 63 61 61 60 60 60 59
67 67 66 66 65 66 67 67 67 67 67 67 66 65 66 66 66 67 66 68 68 68 68 68 66 65 65 64 65 64 62 62 63 62 63 63 62 61 61 61 61 60
68 68 66 66 66 67 67 68 68 67 66 66 66 66 65 66 66 66 67 68 67 67 67 67 66 65 65 65 65 64 62 62 62 62 61 60 60 60 60 60 60 60
68 67 66 66 66 66 67 67 67 67 67 66 65 66 66 66 67 67 69 67 67 67 66 66 65 64 63 63 64 62 62 61 61 61 60 60 60 59 59 59 59 59
68 67 67 66 67 66 67 66 66 66 66 66 66 67 66 66 67 67 67 67 67 66 66 65 64 63 63 63 62 61 62 61 60 60 58 59 60 58 58 58 58 57
67 66 66 66 67 67 67 66 66 66 66 66 66 66 66 66 66 66 66 66 65 65 65 64 63 63 62 62 62 60 60 59 59 59 57 57 57 57 56 56 56 55
67 67 67 66 67 67 67 67 67 66 66 66 65 66 65 65 66 65 65 65 64 64 63 63 62 62 62 61 60 60 60 59 58 57 55 56 56 56 54 54 52 51
67 67 66 66 67 67 67 66 66 66 66 65 66 66 64 64 65 65 64 64 63 63 63 61 61 61 61 61 60 60 60 58 58 55 55 54 55 52 52 52 52 48
67 66 66 67 67 67 67 66 66 66 65 65 65 64 64 64 65 65 64 63 62 62 62 61 60 60 61 60 60 59 58 58 57 55 54 54 53 51 49 50 50 49
66 66 66 66 67 67 67 67 66 66 65 65 64 64 63 65 65 64 64 63 63 62 61 60 60 60 60 59 58 58 57 56 55 54 54 53 51 49 48 49 48 49
67 66 66 66 66 66 67 66 66 66 65 64 64 64 64 65 64 63 63 62 63 61 60 60 60 59 59 58 58 58 57 55 54 52 53 50 50 49 50 48 48 49
66 66 65 66 67 66 67 66 66 65 65 65 63 64 65 64 64 62 62 61 61 61 60 60 59 59 58 57 56 57 56 55 53 51 50 48 49 50 48 48 48 47
66 66 65 65 66 67 66 66 65 65 64 64 64 64 64 64 63 62 62 62 61 61 60 60 59 58 58 57 56 55 54 53 52 51 50 50 50 48 46 47 47 46
66 66 65 66 66 66 66 66 65 64 64 64 64 64 64 63 62 62 62 61 61 61 60 59 58 57 57 56 55 55 54 52 51 51 49 50 50 47 48 47 47 46
66 65 65 65 65 65 65 65 64 64 64 63 64 64 64 63 62 62 61 61 61 61 59 59 58 58 56 56 55 53 52 51 49 48 48 48 48 47 47 46 45 46
65 65 65 65 65 65 65 65 64 64 64 63 63 64 64 63 62 62 60 60 59 59 59 59 59 58 55 51 51 53 52 48 50 49 48 48 47 47 46 45 44 45
65 65 64 64 64 64 64 64 64 63 63 63 63 63 64 63 62 61 60 60 59 58 58 58 57 55 46 44 44 46 50 51 50 49 48 47 46 47 46 45 45 43
64 64 64 64 64 63 64 63 64 63 63 63 63 63 63 62 62 60 60 60 59 58 58 58 58 48 43 43 43 43 47 51 51 49 48 47 46 46 46 45 45 45
64 64 63 63 63 63 63 63 63 62 62 62 63 63 63 62 61 61 60 59 59 58 58 57 58 43 42 42 42 42 43 48 49 50 48 47 47 46 45 45 45 44
64 63 63 63 63 63 63 62 63 62 63 63 63 63 62 62 62 61 60 59 58 58 58 57 57 44 41 42 42 41 42 44 49 50 49 47 47 46 46 45 45 44
63 63 63 63 63 63 63 62 62 63 63 63 63 62 62 62 61 61 59 58 57 57 57 57 57 42 41 41 40 41 41 42 51 50 49 48 48 47 46 46 45 44
63 63 63 63 63 62 62 62 62 62 62 62 62 62 62 62 61 60 58 57 56 56 57 57 57 40 40 40 40 40 40 48 51 50 48 47 47 47 45 45 45 45
64 63 63 63 62 62 61 62 62 63 63 62 62 61 61 61 61 59 58 57 56 56 57 57 55 42 39 40 39 39 42 46 51 48 47 48 47 47 45 45 46 44
64 63 62 62 62 62 62 62 62 62 62 61 61 61 60 60 59 58 58 58 57 57 57 57 54 44 39 39 39 39 44 47 49 47 48 47 47 48 46 45 45 50
64 63 62 62 62 62 62 62 62 62 62 61 61 61 60 59 58 57 56 57 57 58 54 56 54 45 39 39 39 39 44 49 48 45 47 47 46 46 45 45 46 48
64 63 63 62 62 62 62 62 61 61 61 60 60 59 58 58 57 57 56 56 56 56 55 56 55 48 42 39 39 39 41 49 48 45 46 47 45 43 44 45 45 45